When you browse on this site, cookies collect data to enhance your experience and personalize the content and advertising you see.
Visit our Privacy Policy to learn more. By continuing to use the site, you agree to this use of cookies and data.
  • In United Kingdom
  • List of Countries
  • For 7 days
  • Water Temperature
  • Weather Map
  • Weather Widgets
  • user-avatar
    Login

    Hourly Weather Omagh

    Today, 7 June, Sunday

    Time Temperature Precipitation Wind Pressure Humidity
    00:00 +8°C° 0 mm 5 mps 749 mmHg 85%
    01:00 +8°C° 0 mm 5 mps 749 mmHg 85%
    02:00 +8°C° 0 mm 5 mps 749 mmHg 85%
    03:00 +8°C° 0 mm 5 mps 750 mmHg 84%
    04:00 +8°C° 0 mm 5 mps 750 mmHg 83%
    05:00 +8°C° 0 mm 5 mps 750 mmHg 81%
    06:00 +9°C° 0 mm 5 mps 751 mmHg 80%
    07:00 +9°C° 0 mm 5 mps 751 mmHg 78%
    08:00 +10°C° 0 mm 5 mps 752 mmHg 76%
    09:00 +10°C° 0 mm 5 mps 752 mmHg 74%
    10:00 +12°C° 0 mm 5 mps 753 mmHg 73%
    11:00 +12°C° 0 mm 5 mps 753 mmHg 71%
    12:00 +12°C° 0 mm 5 mps 753 mmHg 70%
    13:00 +13°C° 0 mm 5 mps 754 mmHg 70%
    14:00 +13°C° 0 mm 5 mps 754 mmHg 69%
    15:00 +13°C° 0 mm 5 mps 754 mmHg 69%
    16:00 +12°C° 0 mm 5 mps 754 mmHg 71%
    17:00 +12°C° 0 mm 4 mps 754 mmHg 72%
    18:00 +11°C° 0 mm 4 mps 755 mmHg 74%
    19:00 +10°C° 0 mm 4 mps 755 mmHg 77%
    20:00 +8°C° 0 mm 3 mps 756 mmHg 81%
    21:00 +7°C° 0 mm 3 mps 756 mmHg 85%
    22:00 +6°C° 0 mm 2 mps 756 mmHg 88%
    23:00 +5°C° 0 mm 2 mps 757 mmHg 91%

    Tomorrow, 8 June, Monday

    Time Temperature Precipitation Wind Pressure Humidity
    00:00 +5°C° 0 mm 2 mps 757 mmHg 94%
    01:00 +5°C° 0 mm 1 mps 757 mmHg 94%
    02:00 +5°C° 0 mm 1 mps 757 mmHg 95%
    03:00 +4°C° 0 mm 1 mps 757 mmHg 96%
    04:00 +5°C° 0 mm 1 mps 757 mmHg 92%
    05:00 +6°C° 0 mm 1 mps 757 mmHg 89%
    06:00 +7°C° 0 mm 1 mps 757 mmHg 85%
    07:00 +9°C° 0 mm 1 mps 758 mmHg 78%
    08:00 +9°C° 0 mm 2 mps 758 mmHg 72%
    09:00 +12°C° 0 mm 2 mps 758 mmHg 65%
    10:00 +13°C° 0 mm 1 mps 758 mmHg 62%
    11:00 +14°C° 0 mm 1 mps 758 mmHg 58%
    12:00 +15°C° 0 mm 1 mps 758 mmHg 55%
    13:00 +16°C° 0 mm 1 mps 758 mmHg 55%
    14:00 +16°C° 0 mm 1 mps 758 mmHg 55%
    15:00 +16°C° 0 mm 1 mps 758 mmHg 55%
    16:00 +15°C° 0 mm 2 mps 758 mmHg 60%
    17:00 +14°C° 0 mm 2 mps 758 mmHg 64%
    18:00 +14°C° 0 mm 2 mps 758 mmHg 69%
    19:00 +12°C° 0 mm 2 mps 758 mmHg 74%
    20:00 +10°C° 0 mm 1 mps 758 mmHg 79%
    21:00 +9°C° 0 mm 1 mps 758 mmHg 84%
    22:00 +8°C° 0 mm 1 mps 758 mmHg 84%
    23:00 +8°C° 0 mm 1 mps 758 mmHg 84%

    Day after tomorrow, 9 June, Tuesday

    Time Temperature Precipitation Wind Pressure Humidity
    00:00 +7°C° 0 mm 0 mps 758 mmHg 84%
    01:00 +7°C° 0 mm 0 mps 758 mmHg 83%
    02:00 +7°C° 0 mm 0 mps 758 mmHg 83%
    03:00 +7°C° 0 mm 0 mps 758 mmHg 83%
    04:00 +7°C° 0 mm 0 mps 758 mmHg 83%
    05:00 +7°C° 0 mm 0 mps 757 mmHg 82%
    06:00 +7°C° 0 mm 0 mps 757 mmHg 82%
    07:00 +10°C° 0 mm 1 mps 757 mmHg 75%
    08:00 +11°C° 0 mm 1 mps 757 mmHg 68%
    09:00 +13°C° 0 mm 1 mps 757 mmHg 61%
    10:00 +14°C° 0 mm 1 mps 757 mmHg 57%
    11:00 +15°C° 0 mm 2 mps 757 mmHg 52%
    12:00 +16°C° 0 mm 2 mps 757 mmHg 48%
    13:00 +16°C° 0 mm 2 mps 756 mmHg 50%
    14:00 +17°C° 0 mm 2 mps 756 mmHg 51%
    15:00 +17°C° 0 mm 2 mps 756 mmHg 53%
    16:00 +15°C° 0.5 mm 2 mps 756 mmHg 67%
    17:00 +13°C° 0.5 mm 1 mps 755 mmHg 80%
    18:00 +12°C° 0.5 mm 1 mps 755 mmHg 94%
    19:00 +12°C° 0.3 mm 1 mps 755 mmHg 95%
    20:00 +11°C° 0.3 mm 1 mps 755 mmHg 97%
    21:00 +10°C° 0.3 mm 2 mps 755 mmHg 98%
    22:00 +10°C° 0.2 mm 2 mps 755 mmHg 98%
    23:00 +10°C° 0.2 mm 2 mps 755 mmHg 98%

    10 June, Wednesday

    Time Temperature Precipitation Wind Pressure Humidity
    00:00 +10°C° 0.2 mm 2 mps 755 mmHg 98%
    01:00 +9°C° 0 mm 2 mps 754 mmHg 98%
    02:00 +8°C° 0 mm 2 mps 754 mmHg 97%
    03:00 +8°C° 0 mm 1 mps 754 mmHg 97%
    04:00 +8°C° 0 mm 1 mps 754 mmHg 96%
    05:00 +8°C° 0 mm 1 mps 754 mmHg 96%
    06:00 +9°C° 0 mm 1 mps 754 mmHg 95%
    07:00 +10°C° 0.1 mm 1 mps 754 mmHg 91%
    08:00 +10°C° 0.1 mm 2 mps 754 mmHg 88%
    09:00 +12°C° 0.1 mm 2 mps 754 mmHg 84%
    10:00 +12°C° 0.3 mm 2 mps 754 mmHg 82%
    11:00 +13°C° 0.3 mm 2 mps 754 mmHg 80%
    12:00 +13°C° 0.3 mm 2 mps 754 mmHg 77%
    13:00 +13°C° 0.6 mm 2 mps 754 mmHg 79%
    14:00 +13°C° 0.6 mm 2 mps 753 mmHg 80%
    15:00 +12°C° 0.6 mm 3 mps 753 mmHg 82%
    16:00 +13°C° 0.5 mm 2 mps 753 mmHg 84%
    17:00 +12°C° 0.5 mm 2 mps 753 mmHg 85%
    18:00 +12°C° 0.5 mm 2 mps 753 mmHg 87%
    19:00 +10°C° 0.1 mm 2 mps 753 mmHg 89%
    20:00 +9°C° 0.1 mm 2 mps 753 mmHg 91%
    21:00 +7°C° 0.1 mm 2 mps 753 mmHg 93%
    22:00 +7°C° 0 mm 2 mps 753 mmHg 94%
    23:00 +7°C° 0 mm 2 mps 753 mmHg 95%

    11 June, Thursday

    Time Temperature Precipitation Wind Pressure Humidity
    00:00 +6°C° 0 mm 2 mps 752 mmHg 96%
    01:00 +7°C° 0 mm 2 mps 753 mmHg 97%
    02:00 +8°C° 0 mm 3 mps 753 mmHg 97%
    03:00 +9°C° 0 mm 3 mps 753 mmHg 97%
    04:00 +8°C° 0 mm 4 mps 753 mmHg 96%
    05:00 +8°C° 0 mm 4 mps 753 mmHg 95%
    06:00 +10°C° 0 mm 4 mps 754 mmHg 94%
    07:00 +9°C° 0.1 mm 5 mps 754 mmHg 92%
    08:00 +9°C° 0.1 mm 5 mps 755 mmHg 91%
    09:00 +9°C° 0.1 mm 5 mps 755 mmHg 89%
    10:00 +10°C° 0 mm 5 mps 756 mmHg 85%
    11:00 +10°C° 0 mm 5 mps 756 mmHg 81%
    12:00 +12°C° 0 mm 4 mps 756 mmHg 78%
    13:00 +13°C° 0.1 mm 5 mps 756 mmHg 73%
    14:00 +14°C° 0.1 mm 5 mps 756 mmHg 69%
    15:00 +14°C° 0.1 mm 5 mps 756 mmHg 65%
    16:00 +13°C° 0 mm 4 mps 756 mmHg 69%
    17:00 +12°C° 0 mm 4 mps 755 mmHg 73%
    18:00 +11°C° 0 mm 3 mps 755 mmHg 78%
    19:00 +11°C° 0 mm 3 mps 755 mmHg 80%
    20:00 +12°C° 0 mm 2 mps 755 mmHg 83%
    21:00 +10°C° 0 mm 2 mps 755 mmHg 85%
    22:00 +10°C° 0 mm 2 mps 755 mmHg 86%
    23:00 +9°C° 0 mm 2 mps 755 mmHg 86%

    12 June, Friday

    Time Temperature Precipitation Wind Pressure Humidity
    00:00 +9°C° 0 mm 2 mps 755 mmHg 86%
    01:00 +8°C° 0 mm 2 mps 754 mmHg 85%
    02:00 +8°C° 0 mm 2 mps 754 mmHg 85%
    03:00 +8°C° 0 mm 2 mps 753 mmHg 84%
    04:00 +9°C° 0 mm 2 mps 753 mmHg 82%
    05:00 +10°C° 0 mm 2 mps 753 mmHg 81%
    06:00 +11°C° 0 mm 3 mps 753 mmHg 79%
    07:00 +11°C° 0 mm 3 mps 753 mmHg 79%
    08:00 +12°C° 0 mm 3 mps 752 mmHg 78%
    09:00 +13°C° 0 mm 3 mps 752 mmHg 78%
    10:00 +13°C° 0 mm 3 mps 752 mmHg 78%
    11:00 +14°C° 0 mm 3 mps 752 mmHg 78%
    12:00 +14°C° 0 mm 4 mps 752 mmHg 79%
    13:00 +14°C° 0 mm 3 mps 751 mmHg 78%
    14:00 +16°C° 0 mm 3 mps 751 mmHg 77%
    15:00 +16°C° 0 mm 3 mps 751 mmHg 76%
    16:00 +16°C° 0 mm 3 mps 751 mmHg 77%
    17:00 +17°C° 0 mm 3 mps 751 mmHg 78%
    18:00 +17°C° 0 mm 3 mps 750 mmHg 79%
    19:00 +16°C° 0 mm 3 mps 750 mmHg 84%
    20:00 +14°C° 0 mm 2 mps 751 mmHg 89%
    21:00 +13°C° 0 mm 2 mps 751 mmHg 93%
    22:00 +13°C° 0 mm 2 mps 751 mmHg 95%
    23:00 +12°C° 0 mm 2 mps 751 mmHg 96%
    Show more